Regional Weather Roundup
Issued by NWS

Home | Current Version | Previous Version | Text Only | Print | Product List | Glossary On
Versions: 1 2 3 4 5 6 7 8 9 10 11 12 13 14 15 16 17 18 19 20 21 22 23 24 25 26 27 28 29 30 31 32 33 34 35 36 37 38 39 40 41 42 43 44 45 46 47 48 49 50
000
ASUS45 KREV 300610
RWRNV
NEVADA REGIONAL WEATHER ROUNDUP
NATIONAL WEATHER SERVICE RENO NV
1100 PM PDT SAT AUG 29 2015

NOTE: "FAIR" INDICATES FEW OR NO CLOUDS BELOW 12,000 FEET WITH NO
SIGNIFICANT WEATHER AND/OR OBSTRUCTIONS TO VISIBILITY.

NVZ001-003-004-300700-
WESTERN NEVADA

CITY           SKY/WX    TMP DP  RH WIND       PRES   REMARKS
RENO           PTCLDY    67  45  45 N3        30.04S
6HR MIN TEMP:  67; 6HR MAX TEMP:  80;

CARSON CITY    FAIR      66  41  39 SW5       30.06S
MINDEN         FAIR      63  39  42 N3        30.06S
PYRAMID LAKE     N/A     70 N/A N/A SW7         N/A
FALLON         MOCLDY    73  42  32 NW9       29.99F
6HR MIN TEMP:  73; 6HR MAX TEMP:  89;

LOVELOCK       MOCLDY    72  44  36 W12       30.00R
6HR MIN TEMP:  72; 6HR MAX TEMP:  86;

HAWTHORNE      CLEAR     79  39  24 S9        29.99R
$$

NVZ002-CAZ072-073-300700-
NORTHERN AND CENTRAL SIERRA

CITY           SKY/WX    TMP DP  RH WIND       PRES   REMARKS
S. LAKE TAHOE  MOCLDY    60  44  55 S9        30.15S
6HR MIN TEMP:  60; 6HR MAX TEMP:  71;

TRUCKEE        CLEAR     57  45  62 S14G20    30.14S
SQUAW VLY 8000   N/A     48  45  87 SW20        N/A
SUSANVILLE     CLEAR     63  32  31 SW7       30.06S
BLUE CANYON    MOCLDY    56  48  74 S3        30.15F
MAMMOTH LAKES  FAIR      59  37  44 W9        30.24S
BRIDGEPORT     FAIR      61  40  45 SW8G18    30.17S
$$

NVZ030-031-036-300700-
NORTHERN NEVADA

CITY           SKY/WX    TMP DP  RH WIND       PRES   REMARKS
ELKO           MOCLDY    66  39  37 CALM      30.02R
6HR MIN TEMP:  65; 6HR MAX TEMP:  92;

WINNEMUCCA     CLOUDY    70  42  36 W17G23    30.01S
6HR MIN TEMP:  70; 6HR MAX TEMP:  86;

WENDOVER       MOCLDY    82  36  18 W10       29.86R
$$

NVZ035-037-300700-
CENTRAL NEVADA

CITY           SKY/WX    TMP DP  RH WIND       PRES   REMARKS
ELY            PTCLDY    73  34  23 S14G29    30.08S
6HR MIN TEMP:  68; 6HR MAX TEMP:  87;

EUREKA           N/A     66  36  32 E5        30.08R
6HR MIN TEMP:  66; 6HR MAX TEMP:  91;

$$

NVZ013-014-300700-
SOUTH CENTRAL NEVADA

CITY           SKY/WX    TMP DP  RH WIND       PRES   REMARKS
TONOPAH        CLOUDY    75  36  24 NW8       30.06R
6HR MIN TEMP:  75; 6HR MAX TEMP:  91;

$$

NVZ017-020-022-300700-
SOUTHERN NEVADA

CITY           SKY/WX    TMP DP  RH WIND       PRES   REMARKS
LAS VEGAS      PTCLDY    94  36  13 SW10      29.79R
6HR MIN TEMP:  94; 6HR MAX TEMP: 105;

N. LAS VEGAS   CLEAR     95  38  13 W13G21    29.81R
6HR MIN TEMP:  94; 6HR MAX TEMP: 105;

NELLIS AFB     CLEAR     91  45  20 S10       29.78R
6HR MIN TEMP:  91; 6HR MAX TEMP: 106;

HENDERSON      CLEAR     90  39  16 SW9       29.87R
MERCURY        PTCLDY    86  33  15 CALM      29.91F
6HR MIN TEMP:  85; 6HR MAX TEMP:  99;

$$


USA.gov is the U.S. government's official web portal to all federal, state and local government web resources and services.